Wind_Speed
3 4 5 5 5 6 3 2 1 4 11 14 14 17 18 15 17 20 20 17 21 22 24 22 22 20 21 24 20 15 9 6 5 5 5 4 2 0 2 3 3 4 5
3 5 5 5 5 5 3 2 3 7 13 17 14 17 16 15 15 19 15 17 16 17 20 16 17 18 17 16 14 12 9 8 9 7 7 4 2 1 2 2 3 4 5
3 5 6 4 5 6 5 4 4 9 18 17 13 15 13 16 15 20 14 13 16 18 17 15 17 17 14 14 13 10 9 7 8 8 5 2 1 2 3 3 3 4 6
3 5 7 5 5 7 6 7 6 8 15 12 12 13 15 14 14 12 21 16 21 21 17 17 18 15 15 13 13 11 10 8 8 8 5 2 2 2 3 4 4 5 8
3 4 6 5 4 6 7 9 6 10 17 14 14 15 17 16 19 19 19 20 17 18 19 18 18 15 15 15 14 12 10 9 8 6 3 1 2 4 4 4 5 8 11
6 5 5 3 3 5 9 9 9 11 12 12 20 18 20 22 23 22 23 25 23 22 17 15 15 15 15 14 12 10 6 5 3 1 1 4 2 2 4 6 8 10 12
8 7 5 3 3 6 11 12 11 13 18 20 22 22 22 23 23 23 25 26 24 21 19 16 14 13 12 10 8 7 4 2 1 3 3 3 4 4 6 8 10 13 16
9 9 7 5 4 7 12 13 13 19 20 21 20 22 22 24 24 23 23 23 22 20 18 16 14 12 10 8 7 8 6 4 6 3 3 3 3 6 8 11 13 15 17
11 11 9 8 7 8 14 13 13 19 19 19 15 15 15 18 20 19 18 18 18 17 16 15 14 12 11 9 8 8 8 5 2 3 4 4 5 7 10 12 15 17 20
12 12 11 10 10 10 12 15 15 16 18 16 14 15 14 15 17 15 15 15 16 16 15 14 11 9 7 7 6 6 5 3 1 2 4 6 9 12 15 16 18 19 21
12 13 13 13 12 12 13 13 16 17 16 15 14 15 15 16 16 16 15 14 14 13 12 11 9 7 6 5 3 2 3 1 4 8 10 12 12 13 15 17 18 18 18
15 14 14 14 14 15 14 15 16 16 16 15 16 17 15 16 16 15 14 14 13 12 11 9 7 5 4 1 2 4 6 7 7 8 10 12 12 13 14 15 15 16 17
17 15 15 16 16 16 17 17 17 16 17 18 19 19 19 18 17 15 13 11 9 7 6 5 4 3 1 1 3 4 5 5 6 8 9 11 12 13 14 15 15 18 20
17 17 16 18 18 18 18 19 18 18 20 21 22 21 20 17 15 13 11 9 8 7 6 5 4 2 1 2 3 4 5 6 9 11 12 14 15 16 17 18 19 21 22
17 19 18 19 20 20 19 20 22 23 22 21 18 16 16 15 14 13 12 11 10 8 7 6 5 6 4 5 4 5 7 9 12 13 13 14 16 18 19 20 21 22 23
20 20 21 22 22 23 22 23 23 23 22 20 19 18 16 14 12 13 12 9 7 5 4 4 2 1 3 5 7 8 8 9 11 14 16 16 18 21 22 22 22 23 24
21 22 23 24 25 25 25 24 23 22 20 19 18 17 16 14 14 14 13 8 5 4 5 2 2 3 2 4 6 8 10 12 14 16 18 19 20 21 22 22 23 25 27
23 22 24 25 26 27 28 26 24 23 21 20 19 18 17 16 14 14 13 12 8 6 4 3 4 5 6 5 8 11 13 16 18 18 19 21 21 21 22 23 25 26 28
26 27 25 25 26 28 29 27 26 24 22 21 19 19 20 20 19 16 15 12 10 9 7 8 9 10 11 13 14 16 17 17 18 19 19 22 23 22 24 24 26 27 29
29 29 29 28 28 28 30 28 26 24 23 23 22 21 22 22 20 18 18 15 14 12 12 12 12 12 14 17 17 17 17 17 17 18 19 22 25 26 25 26 28 30 31
36 31 29 30 30 29 29 28 27 25 24 24 23 22 22 23 20 21 19 18 16 16 15 14 14 16 16 16 19 19 19 20 20 21 21 22 24 26 28 30 31 32 33
39 38 34 30 32 30 29 29 30 30 29 27 26 25 24 25 22 23 21 20 18 20 18 18 18 17 18 17 20 19 19 19 21 24 26 26 27 28 29 29 31 33 36
43 45 40 36 33 30 31 32 33 33 31 28 27 28 27 26 24 25 24 23 22 23 23 22 21 20 21 20 22 22 21 24 24 26 26 25 28 27 28 29 31 33 36
41 40 46 40 39 37 36 34 33 32 31 29 30 31 30 30 29 28 28 28 26 27 27 26 25 24 25 23 25 23 24 26 29 29 26 26 27 30 33 32 32 34 36
45 42 39 50 45 45 43 38 36 35 33 33 34 34 32 33 33 32 31 33 30 30 31 30 29 28 28 29 29 29 29 29 29 31 30 29 31 32 32 30 33 35 35
50 50 46 51 54 50 48 43 43 39 40 39 37 37 37 39 37 37 37 37 37 34 35 34 33 31 30 33 36 36 36 36 33 33 32 33 33 34 34 31 34 36 34
Wind_Direction
310 300 286 278 288 288 263 109 75 177 165 154 134 126 126 135 148 149 144 149 146 134 122 129 133 137 144 144 145 143 155 173 210 222 217 194 159 109 48 22 14 5 360
318 304 281 276 273 284 234 99 89 157 155 151 156 121 129 135 126 147 132 124 124 128 127 131 138 139 143 147 148 149 155 173 168 167 173 152 118 49 23 4 3 352 338
288 297 285 282 264 271 238 190 139 149 153 143 135 126 129 146 148 138 139 140 132 134 133 145 138 137 129 131 141 149 155 152 161 176 169 131 87 25 346 344 316 317 333
288 290 288 291 266 257 237 189 154 176 166 140 133 131 125 142 155 144 162 158 139 144 139 142 149 133 140 139 143 145 140 126 132 155 157 131 43 334 299 279 301 315 329
264 286 284 288 265 248 221 185 167 172 170 138 145 140 140 140 127 141 146 159 156 159 143 144 143 145 143 141 143 147 149 143 132 121 107 37 290 268 280 291 314 324 326
256 256 266 268 247 232 202 174 167 155 185 154 145 149 154 138 130 134 136 137 139 149 149 150 147 141 137 138 145 141 130 105 104 145 181 237 230 247 277 299 313 316 320
241 230 237 224 218 210 192 175 166 153 157 153 143 141 150 148 142 144 135 132 135 138 140 136 135 138 140 142 142 126 119 120 156 155 195 232 259 287 303 310 313 320 326
227 217 215 196 199 195 190 173 168 158 159 152 149 146 150 157 151 148 139 137 138 137 140 145 147 150 147 155 123 109 107 150 184 202 234 259 292 304 309 318 325 326 325
219 213 207 185 191 187 185 180 185 181 173 160 161 150 150 150 155 149 148 144 142 143 146 150 153 153 150 136 126 135 145 212 149 211 262 292 307 325 324 324 321 324 331
216 214 209 187 187 187 176 185 186 186 192 181 173 158 166 168 160 151 151 147 145 144 146 147 148 153 149 122 152 155 158 198 217 305 318 322 332 328 323 326 331 333 326
214 216 213 192 184 184 183 177 191 190 188 190 182 171 159 151 147 143 143 142 143 145 146 141 144 140 123 104 167 153 131 109 344 336 326 331 334 332 329 330 328 325 329
215 216 216 200 187 182 178 183 179 177 172 171 160 157 156 151 149 148 148 144 141 143 139 134 131 120 109 217 360 345 333 346 344 339 342 339 334 330 331 331 335 339 339
217 215 218 209 193 181 179 183 180 176 163 160 158 154 151 147 144 144 144 144 146 143 139 145 159 155 152 237 334 5 9 2 351 345 343 345 343 344 343 338 336 334 334
219 213 214 213 199 186 179 179 178 170 161 157 156 156 153 152 152 153 158 154 155 155 156 162 169 148 96 53 39 27 8 9 4 352 350 346 337 334 332 330 330 330 331
217 212 210 212 201 187 180 176 170 167 165 166 167 167 164 165 166 167 165 157 148 147 138 140 133 114 83 43 10 4 355 345 335 331 329 328 322 324 326 327 328 327 328
220 213 204 211 202 189 181 182 179 178 180 179 180 181 179 183 178 174 164 166 164 173 177 168 155 122 49 358 339 343 338 332 325 322 321 320 321 322 324 323 324 326 328
218 214 212 208 210 200 185 191 192 193 193 194 196 199 199 198 190 191 186 188 187 196 198 226 267 294 312 316 315 318 317 313 313 314 312 313 315 315 317 321 321 322 321
227 212 219 211 208 208 197 192 199 203 206 208 209 213 212 212 209 206 207 210 209 205 216 228 262 275 284 286 293 299 307 309 311 312 311 310 313 315 318 319 320 321 321
229 218 217 216 211 211 210 205 203 207 212 217 215 215 215 217 216 217 222 224 226 219 226 239 246 262 282 297 303 302 304 308 309 310 310 308 309 311 314 316 318 318 317
224 227 213 214 218 218 215 218 218 214 213 217 219 219 219 220 222 223 226 229 230 231 234 246 264 282 296 300 304 309 310 309 307 307 311 313 314 315 316 314 314 315 316
210 224 220 221 219 221 223 223 226 225 221 224 224 224 225 227 225 229 227 227 234 241 251 262 275 285 290 299 306 311 310 309 311 311 311 311 310 311 312 312 315 316 315
215 213 220 221 224 220 225 226 228 225 224 223 227 228 228 232 224 228 231 235 238 251 256 265 275 282 288 301 306 311 307 305 312 310 309 312 311 312 312 315 318 317 314
224 214 218 218 222 222 227 227 232 231 230 229 231 233 229 229 229 233 235 240 245 252 260 268 276 279 285 296 299 303 300 302 308 312 308 311 315 320 316 319 319 319 317
234 226 216 225 222 222 225 229 234 237 235 232 229 231 231 233 234 236 243 249 250 256 261 267 272 277 283 290 295 300 295 300 308 311 309 308 311 314 313 316 315 319 316
234 232 231 225 221 227 222 227 232 238 238 237 235 238 234 237 239 242 246 251 249 254 263 269 274 278 284 291 291 295 293 295 297 303 305 307 307 308 310 309 313 318 320
238 235 233 226 223 226 228 230 229 232 238 240 239 239 237 240 242 246 249 252 254 254 261 268 273 279 284 289 293 295 294 297 296 296 300 302 302 304 308 306 312 318 319
Height
5835 5834 5834 5834 5834 5833 5833 5833 5832 5831 5831 5832 5833 5833 5834 5838 5840 5842 5844 5845 5846 5849 5849 5851 5855 5858 5862 5864 5867 5869 5871 5873 5875 5876 5876 5876 5877 5878 5878 5878 5877 5877 5877
5835 5834 5834 5834 5834 5834 5834 5834 5833 5832 5833 5834 5835 5834 5836 5839 5841 5844 5845 5846 5847 5848 5851 5853 5855 5859 5863 5865 5867 5869 5872 5872 5873 5875 5876 5877 5877 5878 5877 5877 5877 5876 5876
5835 5834 5834 5834 5834 5835 5835 5835 5834 5834 5835 5835 5836 5836 5838 5841 5844 5846 5847 5848 5849 5851 5854 5855 5858 5860 5862 5865 5867 5869 5870 5871 5872 5875 5877 5877 5877 5877 5877 5877 5877 5876 5876
5835 5834 5834 5834 5835 5835 5835 5836 5836 5836 5837 5836 5837 5839 5840 5843 5845 5847 5847 5849 5851 5853 5855 5857 5858 5859 5861 5864 5866 5869 5870 5872 5873 5876 5877 5876 5876 5876 5877 5877 5877 5876 5876
5834 5834 5834 5834 5835 5835 5835 5836 5837 5838 5839 5838 5838 5841 5842 5845 5845 5847 5847 5849 5852 5854 5856 5857 5859 5861 5863 5864 5867 5869 5870 5871 5873 5874 5874 5875 5875 5876 5877 5877 5876 5875 5874
5834 5834 5834 5834 5835 5835 5836 5837 5838 5839 5840 5840 5839 5842 5843 5846 5847 5848 5848 5849 5851 5854 5856 5858 5860 5862 5864 5865 5867 5869 5870 5873 5873 5874 5874 5875 5876 5876 5876 5876 5875 5874 5873
5834 5834 5835 5834 5835 5835 5836 5838 5839 5840 5841 5842 5842 5843 5844 5847 5847 5848 5849 5850 5853 5855 5858 5860 5862 5864 5865 5866 5867 5871 5872 5873 5873 5874 5875 5876 5876 5876 5876 5875 5874 5873 5872
5833 5834 5834 5834 5835 5835 5836 5838 5840 5841 5843 5844 5845 5845 5846 5847 5848 5850 5851 5853 5855 5856 5859 5860 5863 5865 5866 5866 5871 5874 5874 5873 5875 5875 5876 5875 5874 5875 5874 5874 5872 5871 5870
5832 5833 5833 5834 5835 5835 5837 5838 5840 5843 5844 5845 5847 5848 5850 5851 5852 5853 5855 5856 5858 5859 5861 5862 5863 5865 5866 5868 5872 5872 5871 5871 5875 5874 5875 5874 5874 5873 5872 5871 5870 5870 5868
5830 5831 5832 5833 5835 5835 5837 5838 5840 5842 5845 5847 5849 5850 5852 5853 5855 5856 5858 5859 5860 5862 5863 5863 5865 5866 5867 5869 5868 5870 5872 5873 5873 5873 5873 5873 5872 5872 5871 5870 5870 5868 5867
5828 5830 5831 5832 5834 5836 5837 5838 5840 5842 5844 5847 5849 5851 5852 5854 5856 5858 5860 5861 5862 5864 5864 5865 5866 5867 5869 5871 5869 5871 5873 5874 5873 5873 5873 5872 5872 5871 5870 5869 5869 5867 5865
5826 5829 5830 5831 5834 5835 5837 5839 5841 5842 5844 5847 5849 5852 5854 5856 5857 5859 5861 5862 5864 5865 5866 5867 5867 5868 5870 5870 5871 5871 5871 5872 5872 5872 5872 5872 5871 5870 5869 5868 5866 5864 5863
5824 5827 5829 5830 5832 5835 5836 5838 5841 5844 5845 5847 5850 5852 5854 5857 5858 5861 5862 5864 5865 5866 5867 5868 5868 5869 5870 5870 5870 5871 5871 5872 5871 5871 5871 5870 5869 5868 5867 5866 5865 5863 5861
5823 5825 5828 5830 5831 5833 5836 5838 5840 5844 5846 5848 5850 5853 5854 5856 5858 5861 5862 5863 5864 5865 5866 5866 5867 5869 5869 5869 5869 5870 5870 5870 5869 5869 5869 5869 5867 5866 5865 5864 5862 5860 5857
5821 5823 5826 5829 5830 5832 5835 5838 5840 5844 5846 5848 5851 5854 5855 5857 5858 5859 5861 5862 5863 5864 5865 5866 5867 5869 5868 5869 5869 5870 5869 5870 5870 5869 5868 5867 5865 5864 5862 5861 5859 5857 5854
5819 5821 5823 5827 5829 5831 5834 5838 5840 5843 5846 5848 5851 5853 5855 5857 5858 5859 5860 5861 5863 5863 5865 5866 5867 5869 5869 5869 5868 5869 5869 5870 5869 5867 5866 5865 5863 5861 5859 5857 5855 5852 5850
5816 5818 5821 5824 5829 5830 5832 5836 5840 5842 5845 5848 5850 5853 5854 5856 5857 5858 5860 5861 5863 5864 5866 5866 5866 5867 5868 5868 5868 5867 5868 5868 5867 5865 5863 5861 5860 5858 5856 5853 5851 5849 5846
5812 5816 5819 5822 5826 5829 5831 5833 5838 5840 5843 5846 5849 5851 5853 5855 5856 5857 5859 5860 5862 5862 5863 5864 5864 5865 5866 5868 5868 5867 5866 5865 5863 5862 5860 5857 5856 5854 5852 5850 5848 5844 5841
5808 5813 5815 5820 5823 5826 5830 5831 5834 5837 5840 5843 5846 5848 5850 5852 5854 5857 5857 5858 5859 5860 5861 5862 5863 5864 5864 5863 5864 5864 5863 5862 5859 5858 5856 5854 5853 5851 5848 5846 5843 5840 5837
5805 5808 5812 5815 5819 5822 5826 5829 5832 5835 5838 5840 5843 5845 5847 5849 5851 5853 5854 5856 5856 5857 5859 5860 5860 5860 5860 5860 5859 5859 5858 5858 5857 5855 5853 5851 5848 5846 5844 5842 5839 5835 5832
5799 5802 5809 5811 5815 5818 5823 5826 5829 5832 5834 5836 5839 5841 5844 5845 5848 5849 5851 5852 5853 5854 5854 5855 5857 5857 5857 5856 5855 5855 5854 5852 5850 5849 5849 5848 5845 5843 5839 5836 5833 5829 5826
5795 5799 5802 5807 5810 5814 5818 5822 5823 5826 5829 5832 5835 5837 5839 5841 5845 5845 5847 5848 5850 5849 5851 5852 5853 5853 5852 5852 5851 5851 5850 5849 5848 5845 5843 5840 5838 5836 5834 5830 5828 5825 5819
5787 5793 5796 5802 5803 5810 5812 5816 5817 5821 5824 5828 5831 5832 5835 5836 5840 5841 5842 5844 5845 5845 5846 5847 5848 5848 5848 5847 5846 5846 5845 5843 5843 5840 5838 5836 5833 5829 5828 5825 5822 5819 5813
5778 5786 5790 5796 5799 5802 5804 5808 5812 5815 5820 5823 5825 5826 5829 5831 5834 5836 5837 5839 5841 5841 5841 5842 5843 5844 5843 5843 5840 5841 5840 5839 5836 5835 5833 5831 5829 5826 5823 5819 5815 5813 5807
5769 5778 5786 5788 5792 5793 5796 5801 5805 5809 5812 5815 5818 5820 5824 5826 5828 5831 5832 5832 5835 5836 5836 5838 5838 5839 5838 5837 5837 5836 5834 5834 5833 5831 5828 5826 5824 5821 5818 5813 5809 5806 5801
5757 5767 5774 5779 5782 5785 5792 5793 5797 5803 5804 5807 5811 5813 5816 5818 5821 5824 5826 5827 5828 5831 5830 5831 5831 5832 5833 5832 5830 5829 5828 5827 5826 5826 5823 5819 5817 5814 5812 5808 5804 5801 5795